Location: Mount Tamalpais State Park
(37.9108°N, 122.6128°W)
Time: 14:29:18
(UTC-07:00)

Cosmos 1814 Rocket - Visible Passes

Search period start: 16 September 2014 00:00
Search period end: 26 September 2014 00:00
Orbit: 745 x 789 km, 74.1° (Epoch: 15 September)

Date Brightness Start Highest point End Pass type
(mag) Time Alt. Az. Time Alt. Az. Time Alt. Az.
16 Sep 3.9 21:23:47 10° NNW 21:28:51 73° NE 21:28:51 73° NE visible
16 Sep 6.9 23:08:56 10° WNW 23:09:07 10° W 23:09:07 10° W visible
17 Sep 4.4 20:46:42 10° N 20:51:41 42° ENE 20:52:37 38° E visible
17 Sep 6.2 22:29:33 10° NW 22:32:53 20° W 22:32:53 20° W visible
18 Sep 5.1 20:09:54 10° N 20:14:12 25° ENE 20:16:27 19° E visible
18 Sep 5.2 21:51:31 10° NW 21:56:18 36° W 21:56:43 36° WSW visible
19 Sep 5.7 19:33:37 10° NNE 19:36:34 15° ENE 19:39:30 10° E visible
19 Sep 4.2 21:13:55 10° NNW 21:19:08 66° WSW 21:20:40 44° SSW visible
20 Sep 3.9 20:36:36 10° NNW 20:41:51 71° ENE 20:44:43 27° SSE visible
20 Sep 6.7 22:21:23 10° WNW 22:23:09 12° W 22:24:54 10° WSW visible
21 Sep 4.5 19:59:32 10° N 20:04:28 40° ENE 20:08:54 12° SE visible
21 Sep 6.2 21:42:16 10° NW 21:46:10 22° W 21:49:13 13° SW visible
22 Sep 5.3 21:04:17 10° NW 21:09:06 38° W 21:13:36 11° SSW visible
23 Sep 4.2 20:26:43 10° NNW 20:31:55 70° WSW 20:37:02 10° S visible
24 Sep 4.0 19:49:25 10° NNW 19:54:38 67° ENE 19:59:45 10° SSE visible
24 Sep 6.8 21:33:54 10° WNW 21:35:58 12° W 21:38:02 10° WSW visible
25 Sep 6.3 20:54:59 10° NW 20:58:59 23° W 21:02:56 10° SSW visible
